Regional Weather Roundup
Issued by NWS

Home | Current Version | Previous Version | Graphics & Text | Print | Product List | Glossary On
Versions: 1 2 3 4 5 6 7 8 9 10 11 12 13 14 15 16 17 18 19 20 21 22 23 24 25 26 27 28 29 30 31 32 33 34 35 36 37 38 39 40 41 42 43 44 45 46 47 48 49 50
000
ASUS43 KDMX 020403
RWRIA

WEATHER ROUNDUP FOR IOWA
NATIONAL WEATHER SERVICE DES MOINES IA
1100 PM CDT SUN MAY 01 2016

NOTE: "FAIR" INDICATES FEW OR NO CLOUDS BELOW 12,000 FEET WITH NO
SIGNIFICANT WEATHER AND/OR OBSTRUCTIONS TO VISIBILITY.

* - THESE STATIONS ARE NOT NWS STATIONS...THUS NOT UNDER NWS
QUALITY CONTROL.  THEY ALSO DO NOT REPORT WEATHER SUCH
AS PRECIPITATION OR FOG.

IAZ001>003-012>014-020>022-031>034-043>046-020500-
   NORTHWEST IOWA

CITY           SKY/WX    TMP DP  RH WIND       PRES   REMARKS
CARROLL *      CLOUDY    48  46  93 W7        30.14S
CHEROKEE *     CLOUDY    46  41  85 CALM      30.15S
DENISON *      CLOUDY    48 N/A N/A CALM      30.13S
LE MARS *      CLEAR     45  41  87 CALM      30.18S
ORANGE CITY *  PTCLDY    46  43  87 CALM      30.17R
SHELDON *      MOCLDY    41  39  93 CALM      30.15R
SIOUX CITY     MOCLDY    48  41  76 NW3       30.17S
SPENCER        CLEAR     40  35  83 NW7       30.14R
STORM LAKE *   CLOUDY    48  43  81 NW8       30.15S
$$

IAZ055>058-069>071-079>083-090>094-020500-
   SOUTHWEST IOWA

CITY           SKY/WX    TMP DP  RH WIND       PRES   REMARKS
ATLANTIC *     CLOUDY    48  45  87 NW7       30.14S
AUDUBON *      CLOUDY    46  43  87 CALM      30.15S
CLARINDA *       N/A    N/A N/A N/A MISG        N/A
COUNCIL BLFS * CLOUDY    46  46 100 N6        30.14F
CRESTON *      CLOUDY    46  45  93 N12       30.12S
HARLAN  *      CLOUDY    46  46 100 NW7       30.17F
LAMONI         CLOUDY    46  44  93 N6        30.10S
RED OAK *      PTCLDY   N/A N/A N/A N6        30.13F
SHENANDOAH *   PTCLDY    46  46 100 N5        30.15R
$$

IAZ047>049-059>061-072>074-084-020500-
   CENTRAL IOWA

CITY           SKY/WX    TMP DP  RH WIND       PRES   REMARKS
AMES           CLOUDY    47  44  90 N5        30.12R
ANKENY *       CLOUDY    48  48 100 N5        30.12S
BOONE *        CLOUDY    46  45  93 CALM      30.11S
CHARITON *     CLOUDY    46  46 100 N9        30.09F
DES MOINES     CLOUDY    49  45  86 N6        30.12R
GRINNELL*      CLOUDY    46  45  93 N7        30.10R
KNOXVILLE *    CLOUDY    48  45  87 NW7       30.09S
MARSHALLTOWN   CLOUDY    46  44  93 NE6       30.09R
NEWTON *       CLOUDY    48  48 100 N6        30.10R
PELLA *        CLOUDY    47  46  95 NW7       30.11R
$$

IAZ004>006-015-016-023>025-035-036-020500-
   NORTH CENTRAL IOWA

CITY           SKY/WX    TMP DP  RH WIND       PRES   REMARKS
ALGONA *       CLEAR     46  41  81 S3        30.13S
CLARION *      CLOUDY    45  45 100 W3        30.13R
ESTHERVILLE    CLEAR     44  39  82 NW9       30.13R
FORT DODGE *   CLOUDY    46  43  87 CALM      30.14R
MASON CITY     CLOUDY    42  41  96 W6        30.12R
FOREST CITY *  CLOUDY    41  41 100 CALM      30.11R
WEBSTER CITY * CLOUDY    46  45  93 W8        30.12R
IOWA FALLS *     N/A     41  39  93 NW5       30.13R FOG
$$

IAZ007>011-017>019-026>030-037>042-050>054-066-020500-
   NORTHEAST IOWA

CITY           SKY/WX    TMP DP  RH WIND       PRES   REMARKS
CEDAR RAPIDS   CLOUDY    48  47  96 N5        30.06R
CHARLES CITY * CLOUDY    45  45 100 CALM      30.10S
CLINTON *      CLOUDY    48  48 100 N7        30.04S
DECORAH *      MOCLDY    43  43 100 CALM      30.08R FOG
DUBUQUE        CLOUDY    47  43  86 NE8       30.05R
MONTICELLO *   CLOUDY    48  45  87 NE5       30.06R
OELWEIN *      CLOUDY    46  46 100 N6        30.10R
WATERLOO       CLOUDY    46  43  89 N6        30.09R
$$

IAZ064-065-067-068-078-020500-
   EAST CENTRAL IOWA

CITY           SKY/WX    TMP DP  RH WIND       PRES   REMARKS
DAVENPORT      CLOUDY    49  47  93 N6        30.04S
IOWA CITY      CLOUDY    49  46  90 N7        30.07S
MT. PLEASANT * CLOUDY    50  50 100 N9        30.05S FOG
MUSCATINE *    CLOUDY    50  48  93 N7        30.05F
QUAD CITIES    CLOUDY    50  47  89 CALM      30.04R
$$

IAZ062-063-075>077-085>089-095>099-020500-
   SOUTHEAST IOWA

CITY           SKY/WX    TMP DP  RH WIND       PRES   REMARKS
BURLINGTON     CLOUDY    49  48  97 N9        30.04R
FAIRFIELD *    CLOUDY    48  46  93 N13       30.06S
FORT MADISON * CLOUDY    48  48 100 N8        30.05S
KEOKUK *       CLOUDY    50  48  93 NW3       30.05R
OSKALOOSA *    CLOUDY    46  46 100 N6        30.09R FOG
OTTUMWA        CLOUDY    47  46  97 N9        30.08S FOG
WASHINGTON *   CLOUDY    48  48 100 N7        30.07S
$$

ABBREVIATIONS USED IN REMARKS
   TC - TEMPERATURES IN CELSIUS
  WCI - WIND CHILL INDEX
   HX - HEAT INDEX
  VSB - VISIBILITY
$$





USA.gov is the U.S. government's official web portal to all federal, state and local government web resources and services.